Regional Weather Roundup
Issued by NWS Cleveland, OH

Home | Current Version | Previous Version | Graphics & Text | Print | Product List | Glossary On
Versions: 1 2 3 4 5 6 7 8 9 10 11 12 13 14 15 16 17 18 19 20 21 22 23 24 25 26 27 28 29 30 31 32 33 34 35 36 37 38 39 40 41 42 43 44 45 46 47 48 49 50
000
ASUS41 KCLE 222300
RWRCLE
OHIO REGIONAL WEATHER ROUNDUP
NATIONAL WEATHER SERVICE WILMINGTON, OH
700 PM EDT MON SEP 22 2014

NOTE: "FAIR" INDICATES FEW OR NO CLOUDS BELOW 12,000 FEET WITH NO
SIGNIFICANT WEATHER AND/OR OBSTRUCTIONS TO VISIBILITY.

OHZ001>008-015>018-024>027-034-035-043-044-230000-
   NORTHWEST OHIO

CITY           SKY/WX    TMP DP  RH WIND       PRES   REMARKS
DEFIANCE       CLEAR    N/A N/A N/A VRB3      30.21S
FINDLAY        CLEAR     63  40  42 W8        30.20R
TOLEDO EXPRESS CLEAR     62  40  44 NW3       30.20S
TOLEDO METCALF CLEAR     61  43  51 NW6       30.20S
LIMA           CLEAR     61  45  55 NW5       30.22R
$$

OHZ009>014-019>023-028>033-038-089-230000-
   NORTHEAST OHIO

CITY           SKY/WX    TMP DP  RH WIND       PRES   REMARKS
CLE-HOPKINS    PTCLDY    54  41  61 W8        30.24R
CLE-LAKEFRONT  PTCLDY    54  42  64 W7        30.21R
CUY CO. ARPT   PTCLDY    52  46  82 W8        30.22R
LORAIN-ELYRIA  CLEAR     58  45  62 N5        30.23R
ASHTABULA      MOCLDY    51  43  74 W3        30.22R
AKRON-CANTON   PTCLDY    53  41  63 NW5       30.21R
WOOSTER        NOT AVBL
MANSFIELD      CLEAR     57  40  52 NW3       30.21S
YOUNGSTOWN     CLOUDY    52  44  74 NW5       30.21R
$$

OHZ042-051>053-060>062-070>072-077>081-230000-
  SOUTHWEST OHIO

CITY           SKY/WX    TMP DP  RH WIND       PRES   REMARKS
CINC-COVINGTON CLEAR     64  42  44 NW8       30.22S
CINC-LUNKEN    CLEAR     64  41  42 N6        30.23R
HAMILTON       CLEAR     61  46  57 NW3       30.23R
DAYTON         NOT AVBL
WRIGHT-PAT AFB CLEAR     62  39  42 N3        30.22R
DAYTON GENERAL CLEAR     62  41  46 N7        30.22R
WILMINGTON     CLEAR     61  38  42 NW6       30.22R
$$

OHZ036-037-039>041-045>050-054>059-063>069-073>076-082>088-230000-
  CENTRAL AND SOUTHEAST OHIO

CITY           SKY/WX    TMP DP  RH WIND       PRES   REMARKS
COLUMBUS       CLEAR     63  38  39 N5        30.21R
OSU AIRPORT    CLEAR     60  39  45 N6        30.21R
BOLTON FIELD   NOT AVBL
RICKENBACK AFB NOT AVBL
NEWARK         CLEAR     58  40  51 NW5       30.21R
MARION         CLEAR     61  39  44 N5        30.21R
LANCASTER      CLEAR     61  40  45 N5        30.21R
ZANESVILLE     CLEAR     59  40  49 N6        30.21R
NEW PHILLY     PTCLDY    55  42  61 NW5       30.22S
$$


USA.gov is the U.S. government's official web portal to all federal, state and local government web resources and services.